GW1094 Weather Reports


Display with metric or nautical units.
time (UTC)temp
F
wind
direction
speed
MPH
gust
MPH
rain 1hr
in
rain 24hr
in
rain mn
in
humidity
%
barometer
mb
20260831013008 64 144 0.0 0.0 0.02 0.14 0.14 99 4101.7
20260831012503 64 164 0.0 0.0 0.01 0.13 0.13 99 4101.7
20260831012002 64 154 0.0 0.0 0.00 0.12 0.12 99 4101.7
20260831011457 64 144 0.0 1.0 0.00 0.12 0.12 99 4101.7
20260831010953 64 156 0.0 0.0 0.00 0.12 0.12 99 4101.7
20260831010453 64 143 0.0 0.0 0.00 0.12 0.12 99 4101.4
20260831005949 64 133 0.0 0.0 0.00 0.12 0.12 99 4101.4
20260831005445 64 143 0.0 0.0 0.00 0.12 0.12 99 4101.1
20260831004944 64 85 2.0 3.0 0.00 0.12 0.12 99 4101.1
20260831004440 64 157 0.0 1.0 0.00 0.12 0.12 99 4101.1
20260831003936 64 143 0.0 0.0 0.00 0.12 0.12 99 4101.4
20260831003432 64 165 0.0 0.0 0.00 0.12 0.12 99 4101.1
20260831002931 64 160 0.0 0.0 0.00 0.12 0.12 99 4101.4
20260831002430 64 135 0.0 0.0 0.00 0.12 0.12 99 4101.1
20260831001926 64 119 0.0 2.0 0.00 0.12 0.12 99 4101.1
20260831001421 64 125 0.0 0.0 0.00 0.12 0.12 99 4101.1
20260831000919 64 117 0.0 0.0 0.00 0.12 0.12 99 4101.1
20260831000414 64 115 0.0 0.0 0.00 0.12 0.12 99 4101.1
20260830235912 64 162 0.0 0.0 0.00 0.12 0.12 99 4100.7
20260830235407 64 122 0.0 0.0 0.00 0.12 0.12 99 4101.1
20260830234903 65 152 1.0 1.0 0.00 0.12 0.12 99 4101.1
20260830234357 65 134 0.0 0.0 0.00 0.12 0.12 99 4101.1
20260830233854 65 178 2.0 2.0 0.00 0.12 0.12 99 4101.4
20260830233349 65 86 0.0 1.0 0.00 0.12 0.12 99 4101.4
20260830232844 66 104 0.0 0.0 0.00 0.12 0.12 99 4101.1
20260830232340 66 111 0.0 0.0 0.00 0.12 0.12 99 4101.1
20260830231836 66 84 1.0 1.0 0.00 0.12 0.12 99 4101.1
20260830231331 66 120 0.0 0.0 0.00 0.12 0.12 99 4101.7
20260830230830 66 116 0.0 1.0 0.00 0.12 0.12 99 4101.4
20260830230325 66 116 1.0 1.0 0.00 0.12 0.12 99 4101.1
20260830225820 66 131 0.0 0.0 0.00 0.12 0.12 99 4101.4
20260830225315 66 140 0.0 0.0 0.00 0.12 0.12 99 4101.4
20260830224814 66 138 0.0 0.0 0.00 0.12 0.12 99 4101.1
20260830224308 66 116 0.0 0.0 0.00 0.12 0.12 99 4101.4
20260830223806 67 140 1.0 2.0 0.00 0.12 0.12 99 4101.4
20260830223301 67 78 0.0 1.0 0.00 0.12 0.12 99 4101.4
20260830222755 67 32 0.0 0.0 0.00 0.12 0.12 99 4101.4
20260830222251 68 137 0.0 1.0 0.00 0.12 0.12 99 4101.4
20260830221746 68 145 0.0 1.0 0.00 0.12 0.12 99 4101.4
20260830221243 68 138 0.0 0.0 0.00 0.12 0.12 99 4101.4
20260830220738 68 188 1.0 2.0 0.00 0.12 0.12 99 4101.4
20260830220237 68 203 0.0 0.0 0.00 0.12 0.12 99 4101.7
20260830215735 68 86 1.0 2.0 0.00 0.12 0.12 99 4101.4
20260830215230 68 154 3.0 6.0 0.00 0.12 0.12 99 4101.4
20260830214726 68 157 0.0 0.0 0.00 0.12 0.12 99 4101.7
20260830214225 68 170 0.0 1.0 0.00 0.12 0.12 99 4101.7
20260830213724 68 140 1.0 1.0 0.00 0.12 0.12 99 4101.4
20260830213220 68 136 0.0 0.0 0.00 0.12 0.12 99 4101.7
20260830212716 68 146 0.0 0.0 0.00 0.12 0.12 99 4101.7
20260830212211 68 150 0.0 1.0 0.00 0.12 0.12 99 4101.4
20260830211706 69 114 0.0 1.0 0.00 0.12 0.12 99 4101.4
20260830211205 69 148 0.0 0.0 0.00 0.12 0.12 99 4101.4
20260830210701 69 146 0.0 0.0 0.00 0.12 0.12 99 4101.7
20260830210200 69 197 1.0 1.0 0.00 0.12 0.12 99 4101.1
20260830205657 69 142 0.0 0.0 0.00 0.12 0.12 99 4101.4
20260830205153 68 128 0.0 0.0 0.00 0.12 0.12 99 4101.1
20260830204652 68 116 0.0 1.0 0.00 0.12 0.12 99 4101.1
20260830204151 68 137 0.0 0.0 0.00 0.12 0.12 99 4101.1
20260830203648 68 87 0.0 1.0 0.00 0.12 0.12 99 4101.1
20260830203143 68 143 0.0 1.0 0.00 0.12 0.12 99 4101.1
20260830202642 69 138 0.0 0.0 0.00 0.12 0.12 99 4101.1
20260830202137 69 140 0.0 1.0 0.00 0.12 0.12 99 4101.1
20260830201637 68 136 0.0 0.0 0.00 0.12 0.12 99 4101.1
20260830201132 68 141 0.0 0.0 0.00 0.12 0.12 99 4101.4
20260830200627 68 129 0.0 0.0 0.00 0.12 0.12 99 4101.1
20260830200122 68 131 0.0 1.0 0.00 0.12 0.12 99 4101.1
20260830195617 68 152 0.0 0.0 0.00 0.12 0.12 99 4101.1
20260830195115 68 167 0.0 0.0 0.00 0.12 0.12 99 4101.1
20260830194614 68 139 0.0 0.0 0.00 0.12 0.12 99 4101.1
20260830194109 68 156 0.0 0.0 0.00 0.12 0.12 99 4101.4
20260830193608 68 177 1.0 1.0 0.00 0.12 0.12 99 4101.4
20260830193058 68 131 0.0 0.0 0.00 0.12 0.12 99 4101.4
20260830192554 68 129 0.0 0.0 0.00 0.12 0.12 99 4101.4
20260830192053 67 140 0.0 0.0 0.00 0.12 0.12 99 4101.1
20260830191548 67 120 0.0 0.0 0.00 0.12 0.12 99 4101.1
20260830191044 67 112 1.0 1.0 0.00 0.12 0.12 99 4101.4
20260830190539 67 134 0.0 0.0 0.00 0.12 0.12 99 4101.4
20260830190034 67 127 1.0 1.0 0.00 0.12 0.12 99 4101.4
20260830185528 67 136 1.0 1.0 0.00 0.12 0.12 99 4101.4
20260830185024 67 144 0.0 0.0 0.00 0.12 0.12 99 4101.4
20260830184522 66 137 0.0 0.0 0.00 0.12 0.12 99 4101.4
20260830184011 66 131 0.0 0.0 0.00 0.12 0.12 99 4101.1
20260830183506 67 128 0.0 0.0 0.00 0.12 0.12 99 4101.4
20260830183002 67 140 0.0 0.0 0.00 0.12 0.12 99 4101.7
20260830182457 66 138 0.0 0.0 0.00 0.12 0.12 99 4101.4
20260830181953 67 122 1.0 1.0 0.00 0.12 0.12 99 4101.4
20260830181449 66 138 0.0 0.0 0.00 0.12 0.12 99 4101.4
20260830180943 66 150 0.0 1.0 0.00 0.12 0.12 99 4101.7
20260830180442 66 138 0.0 0.0 0.00 0.12 0.12 99 4101.4
20260830175941 67 187 1.0 2.0 0.00 0.12 0.12 99 4101.4
20260830175435 66 165 0.0 0.0 0.00 0.12 0.12 99 4101.4
20260830174930 66 140 0.0 0.0 0.00 0.12 0.12 99 4101.4
20260830174426 66 126 0.0 0.0 0.00 0.12 0.12 99 4101.1
20260830173921 66 157 1.0 2.0 0.00 0.12 0.12 99 4101.1
20260830173416 66 144 0.0 0.0 0.00 0.12 0.12 99 4101.4
20260830172912 66 136 0.0 0.0 0.00 0.12 0.12 99 4101.4
20260830172409 66 132 0.0 0.0 0.00 0.12 0.12 99 4101.1
20260830171904 66 158 0.0 1.0 0.00 0.12 0.12 99 4101.1
20260830171359 66 137 0.0 0.0 0.00 0.12 0.12 99 4101.4
20260830170854 66 143 0.0 0.0 0.00 0.12 0.12 99 4101.4
20260830170354 67 136 0.0 0.0 0.00 0.12 0.12 99 4101.4
20260830165852 67 207 0.0 0.0 0.00 0.12 0.12 99 4101.4
20260830165348 67 173 0.0 0.0 0.00 0.12 0.12 99 4101.4
20260830164844 67 141 2.0 2.0 0.00 0.12 0.12 99 4101.1
20260830164340 68 144 0.0 1.0 0.00 0.12 0.12 99 4101.1
20260830163836 67 143 0.0 1.0 0.00 0.12 0.12 99 4101.4
20260830163332 66 110 2.0 3.0 0.00 0.12 0.12 99 4101.4
20260830162831 66 178 0.0 1.0 0.00 0.12 0.12 99 4101.4
20260830162328 66 116 1.0 2.0 0.00 0.12 0.12 99 4101.4
20260830161828 65 151 0.0 0.0 0.00 0.12 0.12 99 4101.4
20260830161327 65 128 0.0 0.0 0.00 0.12 0.12 99 4101.7
20260830160823 65 129 0.0 0.0 0.00 0.12 0.12 99 4101.7
20260830160318 65 118 0.0 0.0 0.00 0.12 0.12 99 4101.7
20260830155813 65 137 0.0 0.0 0.01 0.12 0.12 99 4102.1
20260830155310 65 140 0.0 0.0 0.00 0.11 0.11 99 4101.7
20260830154805 65 137 0.0 0.0 0.00 0.11 0.11 99 4101.7
20260830154301 65 149 0.0 0.0 0.00 0.11 0.11 99 4101.7
20260830153757 65 158 0.0 0.0 0.00 0.11 0.11 99 4101.7
20260830153253 65 124 0.0 0.0 0.00 0.11 0.11 99 4101.7
20260830152750 65 145 0.0 0.0 0.00 0.11 0.11 99 4102.1
20260830152246 65 138 0.0 0.0 0.00 0.11 0.11 99 4101.7
20260830151745 65 134 0.0 0.0 0.00 0.11 0.11 99 4101.4
20260830151244 65 138 0.0 0.0 0.00 0.11 0.11 99 4101.4
20260830150740 65 138 0.0 0.0 0.00 0.11 0.11 99 4101.7
20260830150239 65 127 0.0 0.0 0.00 0.11 0.11 99 4101.7
20260830145734 64 138 0.0 0.0 0.00 0.11 0.11 99 4101.7
20260830145229 64 139 0.0 0.0 0.00 0.11 0.11 99 4101.4
20260830144724 64 128 0.0 0.0 0.00 0.11 0.11 99 4101.4
20260830144220 64 118 0.0 0.0 0.00 0.11 0.11 99 4101.4
20260830143716 64 112 1.0 1.0 0.00 0.11 0.11 99 4101.7
20260830143214 64 138 0.0 0.0 0.00 0.11 0.11 99 4101.7
20260830142710 64 137 0.0 0.0 0.00 0.11 0.11 99 4101.4
20260830142204 64 134 0.0 0.0 0.00 0.11 0.11 99 4101.4
20260830141659 64 113 1.0 1.0 0.00 0.11 0.11 99 4101.4
20260830141154 64 133 0.0 0.0 0.00 0.11 0.11 99 4101.4
20260830140650 64 143 1.0 2.0 0.00 0.11 0.11 99 4101.4
20260830140145 64 112 0.0 1.0 0.00 0.11 0.11 99 4101.4
20260830135640 64 130 1.0 1.0 0.00 0.11 0.11 99 4101.4
20260830135134 64 146 1.0 2.0 0.00 0.11 0.11 99 4101.4
20260830134630 64 139 0.0 0.0 0.00 0.11 0.11 99 4101.1
20260830134126 64 137 0.0 0.0 0.00 0.11 0.11 99 4101.1
20260830133621 64 116 1.0 1.0 0.00 0.11 0.11 99 4101.1
20260830133116 64 144 1.0 2.0 0.00 0.11 0.11 99 4101.1
20260830132612 64 117 1.0 2.0 0.00 0.11 0.11 99 4101.1
20260830132108 64 129 1.0 1.0 0.00 0.11 0.11 99 4101.4
20260830131607 64 116 1.0 2.0 0.00 0.11 0.11 99 4101.4
20260830131102 64 148 1.0 2.0 0.00 0.11 0.11 99 4101.4
20260830130556 64 128 1.0 1.0 0.00 0.11 0.11 99 4101.4
20260830130051 64 118 2.0 2.0 0.00 0.11 0.11 99 4101.4
20260830125546 64 117 1.0 1.0 0.01 0.11 0.11 99 4101.4
20260830125045 64 147 1.0 1.0 0.01 0.11 0.11 99 4101.4
20260830124544 64 115 0.0 0.0 0.00 0.10 0.10 99 4101.7
20260830124040 64 130 1.0 1.0 0.00 0.10 0.10 99 4101.4
20260830123537 64 143 1.0 2.0 0.00 0.10 0.10 99 4101.4
20260830123032 64 127 4.0 5.0 0.00 0.10 0.10 99 4101.4
20260830122528 64 150 2.0 3.0 0.00 0.10 0.10 99 4101.4
20260830122024 64 130 2.0 2.0 0.00 0.10 0.10 99 4101.4
20260830121520 64 162 1.0 1.0 0.00 0.10 0.10 99 4101.4
20260830121019 64 142 3.0 3.0 0.00 0.10 0.10 99 4101.4
20260830120514 64 103 0.0 1.0 0.00 0.10 0.10 99 4101.1
20260830120011 64 109 2.0 3.0 0.03 0.10 0.10 99 4101.1
20260830115507 64 143 1.0 1.0 0.03 0.10 0.10 99 4101.4
20260830115002 64 127 3.0 3.0 0.03 0.10 0.10 99 4101.4
20260830114459 64 102 1.0 2.0 0.03 0.10 0.10 99 4101.4
20260830113958 64 130 1.0 1.0 0.02 0.09 0.09 99 4101.1
20260830113453 64 100 1.0 2.0 0.02 0.09 0.09 99 4101.1
20260830112948 64 145 1.0 2.0 0.01 0.08 0.08 99 4101.1
20260830112444 64 140 3.0 3.0 0.01 0.08 0.08 99 4101.1
20260830111940 64 111 1.0 2.0 0.01 0.08 0.08 99 4101.1
20260830111436 64 135 1.0 2.0 0.01 0.08 0.08 99 4101.1
20260830110931 64 151 1.0 1.0 0.01 0.08 0.08 99 4101.1
20260830110427 64 121 2.0 3.0 0.01 0.08 0.08 99 4101.4
20260830105926 64 141 0.0 1.0 0.00 0.07 0.07 99 4101.1
20260830105422 64 145 1.0 1.0 0.00 0.07 0.07 99 4101.4
20260830104918 64 139 1.0 2.0 0.00 0.07 0.07 99 4101.4
20260830104415 64 129 2.0 2.0 0.00 0.07 0.07 99 4101.1
20260830103914 64 136 1.0 2.0 0.00 0.07 0.07 99 4101.4
20260830103410 64 155 1.0 2.0 0.00 0.07 0.07 99 4101.4
20260830102908 64 142 0.0 0.0 0.00 0.07 0.07 99 4101.4
20260830102404 64 130 0.0 1.0 0.00 0.07 0.07 99 4101.1
20260830101900 64 150 0.0 0.0 0.00 0.07 0.07 99 4101.1
20260830101355 64 146 0.0 1.0 0.00 0.07 0.07 99 4101.4
20260830100854 64 140 0.0 0.0 0.00 0.07 0.07 99 4101.4
20260830100353 64 142 0.0 0.0 0.00 0.07 0.07 99 4101.4
20260830095852 64 140 0.0 1.0 0.00 0.07 0.07 99 4101.4
20260830095348 64 146 1.0 1.0 0.00 0.07 0.07 99 4101.7
20260830094844 64 150 1.0 2.0 0.00 0.07 0.07 99 4101.4
20260830094341 64 131 1.0 2.0 0.00 0.07 0.07 99 4101.4
20260830093836 64 150 2.0 2.0 0.00 0.07 0.07 99 4101.4
20260830093331 64 145 0.0 0.0 0.00 0.07 0.07 99 4101.1
20260830092826 64 143 1.0 1.0 0.00 0.07 0.07 99 4101.4
20260830092322 64 153 1.0 1.0 0.00 0.07 0.07 99 4101.4
20260830091819 64 139 1.0 1.0 0.00 0.07 0.07 99 4101.4
20260830091318 64 134 1.0 2.0 0.00 0.07 0.07 99 4101.4
20260830090817 64 125 1.0 2.0 0.00 0.07 0.07 99 4101.4
20260830090312 64 135 0.0 1.0 0.00 0.07 0.07 99 4101.7
20260830085807 64 123 2.0 2.0 0.00 0.07 0.07 99 4101.4
20260830085306 64 151 1.0 2.0 0.00 0.07 0.07 99 4101.4
20260830084757 64 154 1.0 2.0 0.00 0.07 0.07 99 4101.4
20260830084253 64 153 1.0 1.0 0.00 0.07 0.07 99 4101.4
20260830083748 64 141 1.0 1.0 0.00 0.07 0.07 99 4101.7
20260830083244 64 118 0.0 0.0 0.00 0.07 0.07 99 4101.7
20260830082743 64 131 0.0 1.0 0.00 0.07 0.07 99 4101.4
20260830082239 64 131 0.0 1.0 0.00 0.07 0.07 99 4101.7
20260830081734 64 134 0.0 0.0 0.00 0.07 0.07 99 4102.1
20260830081233 64 137 1.0 1.0 0.00 0.07 0.07 99 4101.7
20260830080728 64 144 0.0 0.0 0.00 0.07 0.07 99 4101.7
20260830080224 64 147 1.0 1.0 0.00 0.07 0.07 99 4102.1
20260830075723 65 142 2.0 2.0 0.00 0.07 0.07 99 4102.1
20260830075219 65 153 2.0 2.0 0.00 0.07 0.07 99 4102.1
20260830074714 65 154 2.0 2.0 0.00 0.07 0.07 99 4102.4
20260830074210 65 153 2.0 2.0 0.00 0.07 0.07 99 4102.1
20260830073706 65 162 4.0 5.0 0.00 0.07 0.07 99 4102.1
20260830073202 65 177 5.0 7.0 0.00 0.07 0.07 99 4102.4
20260830072701 65 166 7.0 9.0 0.00 0.07 0.07 99 4102.1
20260830072156 65 154 4.0 5.0 0.00 0.07 0.07 99 4102.4
20260830071651 65 153 3.0 3.0 0.00 0.07 0.07 99 4102.4
20260830071150 65 161 4.0 6.0 0.00 0.07 0.07 99 4102.4
20260830070645 65 157 4.0 5.0 0.00 0.07 0.07 99 4102.4
20260830070140 65 166 3.0 3.0 0.00 0.07 0.07 99 4102.7
20260830065638 65 157 2.0 2.0 0.02 0.07 0.07 99 4102.4
20260830065137 65 165 2.0 2.0 0.02 0.07 0.07 99 4102.7
20260830064637 65 159 1.0 2.0 0.02 0.07 0.07 99 4102.7
20260830064132 65 164 3.0 5.0 0.02 0.07 0.07 99 4103.1
20260830063632 65 171 5.0 5.0 0.02 0.07 0.07 99 4103.1
20260830063131 65 174 6.0 7.0 0.02 0.07 0.07 99 4103.1
20260830062626 65 178 5.0 6.0 0.02 0.07 0.07 99 4103.1
20260830062121 65 178 3.0 3.0 0.02 0.07 0.07 99 4103.4
20260830061615 65 170 5.0 6.0 0.02 0.07 0.07 99 4103.1
20260830061112 65 182 5.0 6.0 0.00 0.05 0.05 99 4103.1
20260830060608 65 187 5.0 6.0 0.00 0.05 0.05 99 4103.1
20260830060105 65 210 5.0 6.0 0.00 0.05 0.05 99 4103.4
20260830055559 65 213 7.0 7.0 0.03 0.04 0.04 99 4103.8
20260830055055 65 213 7.0 7.0 0.03 0.04 0.04 99 4103.4
20260830054550 65 226 8.0 9.0 0.03 0.04 0.04 99 4103.8
20260830054046 66 225 7.0 8.0 0.02 0.03 0.03 99 4103.8
20260830053541 66 224 5.0 6.0 0.01 0.02 0.02 99 4103.8
20260830053040 66 229 7.0 7.0 0.01 0.02 0.02 99 4103.8
20260830052537 66 228 7.0 7.0 0.01 0.02 0.02 99 4103.8
20260830052036 66 229 5.0 6.0 0.00 0.01 0.01 99 4103.8
20260830051531 66 240 7.0 7.0 0.00 0.01 0.01 99 4103.8
20260830051021 66 237 5.0 6.0 0.00 0.01 0.01 99 4103.8
20260830050515 66 237 4.0 5.0 0.00 0.01 0.01 99 4103.8
20260830050014 66 238 4.0 5.0 0.01 0.01 0.01 99 4103.8
20260830045513 66 264 7.0 8.0 0.01 0.01 0.01 99 4103.4
20260830045008 66 227 3.0 3.0 0.00 0.00 0.00 99 4103.8
20260830044457 66 229 6.0 7.0 0.00 0.00 0.00 99 4103.8
20260830043957 66 239 4.0 5.0 0.00 0.00 0.00 99 4103.8
20260830043447 66 226 4.0 5.0 0.00 0.00 0.00 99 4103.8
20260830042945 66 223 5.0 6.0 0.00 0.00 0.00 99 4103.8
20260830042439 66 220 4.0 5.0 0.00 0.00 0.00 99 4103.8
20260830041939 66 218 4.0 5.0 0.00 0.00 0.00 99 4103.4
20260830041437 66 215 5.0 6.0 0.00 0.00 0.00 99 4103.4
20260830040933 66 215 4.0 5.0 0.00 0.00 0.00 99 4103.8
20260830040429 66 221 4.0 5.0 0.00 0.00 0.00 99 4103.8
20260830035928 66 231 4.0 5.0 0.02 0.02 0.02 99 4103.4
20260830035427 66 232 3.0 3.0 0.02 0.02 0.02 99 4103.4
20260830034922 66 230 3.0 3.0 0.02 0.02 0.02 99 4103.8
20260830034418 66 232 5.0 6.0 0.02 0.02 0.02 99 4103.4
20260830033912 66 227 5.0 5.0 0.02 0.02 0.02 99 4103.4
20260830033408 66 229 4.0 5.0 0.02 0.02 0.02 99 4103.4
20260830032903 67 225 4.0 5.0 0.01 0.01 0.01 99 4103.4
20260830032402 67 224 4.0 5.0 0.01 0.01 0.01 99 4103.4
20260830031857 67 227 5.0 6.0 0.00 0.00 0.00 99 4103.4
20260830031353 67 226 6.0 7.0 0.00 0.00 0.00 99 4103.4
20260830030848 67 239 5.0 6.0 0.00 0.00 0.00 99 4103.4
20260830030343 67 235 6.0 7.0 0.00 0.00 0.00 99 4103.4
20260830025843 68 236 6.0 6.0 0.00 0.00 0.00 99 4103.4
20260830025342 68 235 6.0 7.0 0.00 0.00 0.00 99 4103.4
20260830024836 67 242 6.0 7.0 0.00 0.00 0.00 99 4103.8
20260830024332 68 235 5.0 6.0 0.00 0.00 0.00 99 4103.4
20260830023829 67 230 4.0 5.0 0.00 0.00 0.00 99 4103.4
20260830023328 68 240 5.0 6.0 0.00 0.00 0.00 99 4103.8
20260830022827 67 233 5.0 6.0 0.00 0.00 0.00 99 4103.8
20260830022322 67 246 5.0 6.0 0.00 0.00 0.00 99 4103.4
20260830021822 68 234 5.0 5.0 0.00 0.00 0.00 99 4103.4
20260830021318 68 234 7.0 7.0 0.00 0.00 0.00 98 4103.4
20260830020817 68 229 5.0 7.0 0.00 0.00 0.00 99 4103.4
20260830020312 68 233 7.0 7.0 0.00 0.00 0.00 99 4103.4
20260830015807 68 223 6.0 6.0 0.00 0.00 0.00 99 4103.4
20260830015305 68 227 7.0 8.0 0.00 0.00 0.00 99 4103.4
20260830014757 68 238 6.0 7.0 0.00 0.00 0.00 99 4103.1
20260830014253 68 233 5.0 6.0 0.00 0.00 0.00 99 4103.1
20260830013748 68 236 6.0 7.0 0.00 0.00 0.00 98 4103.1
20260830013243 68 235 6.0 7.0 0.00 0.00 0.00 99 4103.1